Starlink 30130

operational
NORAD ID: 56697 Int'l Des: 2023-067 Owner: SPXS Country: US Constellation: starlink
LEOCIRCULAR

Über Starlink 30130

Beschreibung wird geladen...

Live-Position

3D-Globus wird geladen...

Nächste Überflüge

Höhenverlauf

Altitude vs Time

uPlot chart will show altitude changes over time

Zweizeiliger Elementsatz

1 56697U 23067K 25258.06531004 -.00000479 00000-0 -20395-4 0 9997
2 56697 43.0019 148.5742 0000954 265.5149 94.5585 15.02535821128989
Epoch: 15. Sept. 2025 • Age: 32 hours

Aktueller Status

Höhe 559.7 km
Geschwindigkeit 7.58 km/s
Subsatellitenpunkt -6.30°S, 2.53°W
Startdatum 19. Mai 2023
Alter 2.3 years
Typ internet

Technische Details

Klassifizierung Payload
Masse 730.00 kg
Trockenmasse 700.00 kg
Gesamtmasse 730.00 kg
Länge 0.30 m
Durchmesser 4.10 m
Spannweite 29.00 m
Form Box + pan
Hersteller SPXS
Bus-Typ Starlink V2M
Phasenstatus In Orbit
Besitzer/Staat SPXS/US

Große Konstellationen

Loading constellations...